LES 8 9/SOL 11A B DEB *, 13753

Orbit data source: Space-Track

LES 8 9/SOL 11A B DEB *, 13753 is space debris in GEO originally from a launch on Mon, 15 Mar 1976 UTC launched from the Air Force Eastern Test Range (AFETR). Debris objects in space refer to the collection of defunct objects orbiting the Earth. Examples of debris include non-operational satellites, rocket bodies, and fragments generated from explosions, collisions, or faulty payload assembly.

Loading next visibility...
Identifier
13753, 1976-023K
Orbit
GEO
Last TLE update
18 hours ago
Origin
Manufacturer
Unknown
Mission
LES 9 operational debris"
Bus & Motor
Unknown
Mass
Unknown
Launch date (UTC)
1976-03-15 (49 years ago)
Launch vehicle
Unknown
Launch site
Air Force Eastern Test Range (AFETR)
Object type
Payload
Rocket body
Debris
Shape & HBR
Unknown
Radar Cross Section
Large (>1 m²)

Expand to show TLE details & history

TLE from 18 hours ago
0 LES 8 9/SOL 11A B DEB *
1 13753U 76023K   25128.86105447 -.00000205  00000-0  00000-0 0  9998
2 13753   5.8286 285.3079 0002928  52.0995  92.8492  1.01345786118419
Epoch: 2025-05-08T20:39Z
Definitive object data (Epoch: 2025-05-08T20:39:55.106Z)
Latitude
3.34226°
Longitude
-106.48078°
Altitude
35,487.873 km
Speed
3.086 km/s
True Right ascension
04h 41m 41s
True Declination
3° 20' 20"
Sunlit
Object was in daylight at TLE epoch
Visualization TLE readout
Latitude
4.80518°
Longitude
163.3701°
Altitude
35,474.988 km
Speed
3.087 km/s
Apparent Right ascension
22h 41m 43s
Apparent Declination
0° 53' 05"
Sunlit
Object is in daylight
Visualization observer readout
Local Sidereal Time
22:36:22
Azimuth
177.95° S
Elevation
49.181°
Doppler factor
1
Orbital elements
Apogee altitude
35,501.496 km
Perigee altitude
35,476.978 km
Semi-major axis
41,867.374 km
Eccentricity
0.0002928
Inclination
5.8286°
RAAN
285.3079°
Arg. of periapsis
52.0995°
True anomaly
92.88271°
Mean anomaly
92.8492°
Eccentric anomaly
92.86596°
Mean motion
0.25336 °/min
BSTAR
Unknown
Orbital period
1420.93 mins
Loading historical data...
13753 neighbors
Loading maneuver chart data...
Loading SW <> Apogee altitude chart data...
Loading historical data...
Loading historical data...
Loading historical data...
Loading historical data...
Loading historical data...
Loading historical data...
Loading historical data...

LES 8 9/SOL 11A B DEB * Visibility forecast

Observer location: undefined°, undefined°

Span
Click to sort rows by Start time (UTC) header in descending order
Start Az.
Max El. time (UTC)
Max El. Az.
Max El.
End time (UTC)
End Az.
1440 mins2025-05-09 14:26:13.287Z177.951° S2025-05-09 16:47:13.287Z176.935° S37.585°2025-05-10 14:26:13.287Z171.221° S
|